LEMUR-2-SQUAREJAWS (46317 NORAD) Tracking and Keplerian Element Data

This shows tracking and keplerian element data for the satellite.

Feedback or suggestion? Click here.




ElementValue
Catalog46317
NameLEMUR-2-SQUAREJAWS
Epoch Orbit1354
Epoch Day336.87492138
Epoch Year2020
RAAN48.4338
Inclination97.5117
Eccentricity0.0001249
Argument of Perigee341.4676
Mean Anonmoly18.6508
Mean Motion15.11258945
Decay Rate4.703E-05
L11 46317U 20061AX 20336.87492138 .00004703 00000-0 28338-3 0 9997
L22 46317 97.5117 48.4338 0001249 341.4676 18.6508 15.11258945 13542

Live tracking and technical data element details for LEMUR-2-SQUAREJAWS (NORAD 46317). LEMUR-2-SQUAREJAWS can be tracked NOW for your location showing map with azimuth and elevation plus other details from your city location.

Track the satellite on the map from your city or location and see movement details for azimuth, elevation, latitude, longitude, range, height, and movement on the map or in text.







IsCatalogInMostPopularTable: catalog: 46317, numindb: 18
Update: records affected: 1



GetName: 46317 LEMUR-2-SQUAREJAWS

Hit Count: updated at: Wed, 02 Dec 2020 18:56:17 GMT